Tracking 28799 objects as of 18-Apr-2024
HD Live streaming from Space Station
objects crossing your sky now

ARIANE 1 DEB

Track ARIANE 1 DEB now!
10-day predictions


NORAD ID: 40780
Int'l Code: 1979-104AH
Perigee: 546.2 km
Apogee: 20,817.8 km
Inclination: 19.1 °
Period: 369.4 minutes
Semi major axis: 17052 km
RCS: Unknown
Launch date: December 24, 1979
Source: European Space Agency (ESA)
Launch site: FRENCH GUIANA (FRGUI)

Note: This is SATELLITE DEBRIS
Your satellite tracking list
Your tracking list is empty




NASA's NSSDC Master Catalog

Two Line Element Set (TLE):
1 40780U 79104AH  24105.20264176  .00000129  00000-0  71650-3 0  9994
2 40780  19.0538 115.9975 5943728  98.6463 328.9989  3.89854617299805
Source of the keplerian elements: AFSPC